[Iaude] MPEC L39: 2024 LO [a=2.11,e=0.56,i=35.0,H=18.8]
    mpec at cfa.harvard.edu 
    mpec at cfa.harvard.edu
       
    Tue Jun  4 05:17:42 EDT 2024
    
    
  
M.P.E.C. 2024-L39                                  Issued 2024 June 4, 09:16 UT
     The Minor Planet Electronic Circulars contain information on unusual
         minor planets, routine data on comets and natural satellites,
         and occasional editorial announcements.  They are published
    on behalf of Division F of the International Astronomical Union by the
          Minor Planet Center, Smithsonian Astrophysical Observatory,
                          Cambridge, MA 02138, U.S.A.
			  
             Prepared using the Tamkin Foundation Computer Network
                              MPC at CFA.HARVARD.EDU
            URL https://www.minorplanetcenter.net/    ISSN 1523-6714
                                    2024 LO                                     
Observations:
     K24L00O* C2024 06 01.28025115 38 40.275+26 03 34.45         22.57wXEL039F52
     K24L00O  C2024 06 01.29263315 38 39.004+26 03 29.03         22.19wXEL039F52
     K24L00O  C2024 06 01.31741315 38 36.452+26 03 18.79         22.15wXEL039F52
     K24L00O  C2024 06 01.49920715 38 17.653+26 01 58.71         22.43GVEL039F52
     K24L00O  C2024 06 01.49985915 38 17.613+26 01 58.63         22.26GVEL039F52
     K24L00O KC2024 06 02.20405315 37 07.248+25 56 39.77         22.16GVEL039V06
     K24L00O KC2024 06 02.20803115 37 06.852+25 56 37.86         22.11GVEL039V06
     K24L00O KC2024 06 02.21200915 37 06.445+25 56 36.02         21.71GVEL039V06
     K24L00O KC2024 06 02.21336215 37 06.274+25 56 35.28         21.8 GVEL039H01
     K24L00O KC2024 06 02.21598915 37 06.035+25 56 34.08         21.90GVEL039V06
     K24L00O KC2024 06 02.22517115 37 05.060+25 56 29.80         21.8 GVEL039H01
     K24L00O  C2024 06 02.23450015 37 04.117+25 56 25.58         21.9 GVEL039H01
     K24L00O  C2024 06 02.24225615 37 03.318+25 56 21.85         21.9 GVEL039H01
     K24L00O KC2024 06 02.29811 15 36 57.59 +25 55 55.9          21.1 RVEL039691
     K24L00O KC2024 06 02.31492 15 36 55.82 +25 55 47.9          22.0 RVEL039691
     K24L00O KC2024 06 02.33173 15 36 54.16 +25 55 40.0          21.6 RVEL039691
     K24L00O 3C2024 06 02.46032615 36 41.215+25 54 40.84         21.80GVEL039T14
     K24L00O 3C2024 06 02.46153415 36 41.090+25 54 40.27         21.87GVEL039T14
     K24L00O 3C2024 06 02.46275215 36 40.968+25 54 39.67         21.81GVEL039T14
     K24L00O KC2024 06 03.15151415 35 32.38 +25 49 03.8          22.1 GVEL039H21
     K24L00O KC2024 06 03.15440215 35 32.09 +25 49 02.3          22.0 GVEL039H21
     K24L00O KC2024 06 03.15729115 35 31.80 +25 49 01.1          21.9 GVEL039H21
     K24L00O KC2024 06 04.33487 15 33 34.51 +25 38 52.9          22.3 RVEL039291
     K24L00O KC2024 06 04.34792 15 33 33.12 +25 38 45.6                VEL039291
     K24L00O KC2024 06 04.36090 15 33 31.89 +25 38 38.7                VEL039291
Observer details:
291 LPL/Spacewatch II.  Observer T. H. Bressi.  1.8-m f/2.7 reflector + CCD.
691 Steward Observatory, Kitt Peak-Spacewatch.  Observer J. V. Scotti.  0.9-m
    f/3 reflector + CCD.
F52 Pan-STARRS 2, Haleakala.  Observers J. Herman, T. Lowe, P. Minguez, A.
    Schultz, I. Smith.  Measurers K. Chambers, T. de Boer, J. Fairlamb, H.
    Gao, M. Huber, C.-C. Lin, E. Magnier, Y. Ramanjooloo, R. Wainscoat, R.
    Weryk.  1.8-m Ritchey-Chretien + CCD.
H01 Magdalena Ridge Observatory, Socorro.  Observers W. H. Ryan, E. V. Ryan.
    Measurer W. H. Ryan.  2.4-m f/8.9 Ritchey-Chretien + CCD.
H21 Astronomical Research Observatory, Westfield.  Observer R. Holmes.
    Measurers T. Linder, R. Holmes, L. Horn.  1.3-m f/4.0 astrograph + CCD.
T14 Canada-France-Hawaii Telescope, Maunakea.  Observers R. Wainscoat, L.
    Wells, T. Burdullis.  Measurers R. Weryk, R. Wainscoat.  3.6-m f/4.1
    reflector + CCD.
V06 Catalina Sky Survey-Kuiper.  Observer K. W. Wierzchos.  Measurers T.
    Beuden, V. F. Carvajal, D. Fay, J. B. Fazekas, D. C. Fuls, A. R. Gibbs, A.
    D. Grauer, H. Groeller, J. K. Hogan, R. A. Kowalski, S. M. Larson, G. J.
    Leonard, D. Rankin, R. L. Seaman, F. C. Shelly, K. W. Wierzchos.  1.55-m
    reflector + 1K CCD.
Orbital elements:
2024 LO                                                  Earth MOID = 0.1962 AU
Epoch 2024 Mar. 31.0 TT = JDT 2460400.5                 MPC                     
M 279.01189              (2000.0)            P               Q                  
n   0.32086252     Peri.  256.50013     +0.82728218     -0.01628247             
a   2.1131162      Node   102.06117     +0.16526979     +0.96240048             
e   0.5622256      Incl.   35.04549     -0.53692653     +0.27114608             
P   3.07           H   18.82          G   0.15           U   9                  
Residuals in seconds of arc
240601 F52  0.1-  0.2+    240602 V06  0.1+  0.1-    240602 T14  0.0   0.0
240601 F52  0.1-  0.0     240602 H01  0.0   0.0     240603 H21  0.1-  0.0
240601 F52  0.0   0.2+    240602 H01  0.2+  0.1+    240603 H21  0.0   0.1-
240601 F52  0.3-  0.2-    240602 H01  0.2+  0.0     240603 H21  0.1+  0.1+
240601 F52  0.1+  0.0     240602 691  0.0   0.1-    240604 291  1.2+  0.4+
240602 V06  0.1-  0.1+    240602 691  0.6-  0.2-    240604 291  0.2+  0.2+
240602 V06  0.1+  0.1+    240602 691  0.3+  0.1-    240604 291  1.4+  0.4+
240602 V06  0.1+  0.1+    240602 T14  0.0   0.0
240602 H01  0.0   0.1+    240602 T14  0.0   0.0
Ephemeris:
2024 LO                  a,e,i = 2.11, 0.56, 35                  q = 0.9251
Date    TT    R. A. (2000) Decl.     Delta      r    Elong.  Phase     V
2024 05 05    16 21 09.6 +26 00 07   1.5476  2.3468   132.2    18.6    22.6
...
2024 05 20    15 59 13.6 +26 49 06   1.4403  2.2564   133.1    19.1    22.4
...
2024 05 28    15 45 53.4 +26 29 07   1.4013  2.2062   131.4    20.2    22.3
...
2024 06 03    15 35 47.5 +25 50 21   1.3804  2.1677   129.1    21.3    22.2
2024 06 04    15 34 07.9 +25 41 52   1.3776  2.1612   128.6    21.5    22.2
2024 06 05    15 32 29.0 +25 32 49   1.3750  2.1547   128.1    21.7    22.2
...
2024 06 11    15 22 55.8 +24 26 44   1.3630  2.1152   124.9    23.2    22.2
...
2024 06 19    15 11 30.7 +22 29 20   1.3567  2.0614   119.9    25.3    22.2
...
2024 07 04    14 55 50.1 +17 36 37   1.3691  1.9569   109.3    29.4    22.2
A. U. Tomatic                (C) Copyright 2024 MPC           M.P.E.C. 2024-L39
    
    
More information about the Iaude
mailing list